Los Alamos, NM

3:41 PM MST on December 03, 2016 (GMT -0700)
Los Alamos

Weather History for KLAM - March, 2014

Change the Weather History Date:

Monday, March 31, 2014

  Actual Average Record
Temperature  
Mean Temperature 44 °F -  
Max Temperature 55 °F 53 °F 73 °F (2012)
Min Temperature 32 °F 27 °F 10 °F (1985)
Degree Days  
Heating Degree Days 22    
Moisture  
Dew Point 7 °F    
Average Humidity 23    
Maximum Humidity 37    
Minimum Humidity 11    
Precipitation  
Precipitation 0.00 in - - ()
Sea Level Pressure  
Sea Level Pressure 30.01 in    
Wind  
Wind Speed 8 mph (SSW)    
Max Wind Speed 25 mph    
Max Gust Speed 34 mph    
Visibility 10 miles    
Events      
Averages and records for this station are not official NWS values.
T = Trace of Precipitation, MM = Missing Value Source: NWS Daily Summary

Daily Weather History Graph

Daily Weather History Graph

Search for Another Location

Airport or City:

Trip Planner

Search our weather history database for the weather conditions in past years. The results will help you decide how hot, cold, wet, or windy it might be!

Date:

Astronomy

Mar. 31, 2014 Rise Set
Actual Time 6:52 AM MDT 7:26 PM MDT
Civil Twilight 6:27 AM MDT 7:51 PM MDT
Nautical Twilight 5:56 AM MDT 8:22 PM MDT
Astronomical Twilight 5:25 AM MDT 8:53 PM MDT
Moon 7:20 AM MDT (3/31) 8:44 PM MDT (3/31)
Length of Visible Light 13h 24m
Length of Day
12h 33m
New Moon, 1% of the Moon is Illuminated
Mar 31
New Moon
Apr 7
First Quarter
Apr 15
Full
Apr 22
Last Quarter
Apr 29
New

Hourly Weather History & Observations

Time (MDT) Temp. Windchill Dew Point Humidity Pressure Visibility Wind Dir Wind Speed Gust Speed Precip Events Conditions
12:15 AM 43.0 °F 35.4 °F 11.3 °F 28% 29.96 in 10.0 mi West 16.1 mph 28.8 mph N/A   Clear
12:35 AM 41.9 °F 34.3 °F 11.5 °F 29% 29.96 in 10.0 mi WSW 15.0 mph 21.9 mph N/A   Clear
12:55 AM 41.0 °F 39.0 °F 10.9 °F 29% 29.96 in 10.0 mi West 3.5 mph 19.6 mph N/A   Clear
1:15 AM 40.8 °F 36.2 °F 9.5 °F 28% 29.96 in 10.0 mi WSW 6.9 mph - N/A   Clear
1:35 AM 40.3 °F 38.2 °F 8.4 °F 27% 29.97 in 10.0 mi NNE 3.5 mph - N/A   Clear
1:55 AM 39.7 °F 36.5 °F 9.0 °F 28% 29.97 in 10.0 mi ENE 4.6 mph - N/A   Clear
2:15 AM 38.8 °F - 9.9 °F 30% 29.98 in 10.0 mi Calm Calm - N/A   Clear
2:35 AM 39.2 °F 34.2 °F 8.6 °F 28% 29.98 in 10.0 mi North 6.9 mph - N/A   Clear
2:55 AM 38.8 °F - 8.1 °F 28% 29.97 in 10.0 mi Calm Calm - N/A   Clear
3:15 AM 37.2 °F 32.6 °F 7.5 °F 29% 29.97 in 10.0 mi East 5.8 mph - N/A   Clear
3:35 AM 36.7 °F 32.0 °F 6.8 °F 29% 29.97 in 10.0 mi East 5.8 mph - N/A   Clear
3:55 AM 36.5 °F 29.7 °F 6.8 °F 29% 29.98 in 10.0 mi East 9.2 mph - N/A   Clear
4:15 AM 34.9 °F - 6.8 °F 31% 29.98 in 10.0 mi Calm Calm - N/A   Clear
4:35 AM 35.6 °F 30.7 °F 6.8 °F 30% 29.98 in 10.0 mi East 5.8 mph - N/A   Clear
4:55 AM 33.8 °F - 7.0 °F 33% 29.99 in 10.0 mi Calm Calm - N/A   Clear
5:15 AM 34.9 °F 32.0 °F 7.3 °F 32% 29.99 in 10.0 mi ESE 3.5 mph - N/A   Clear
5:35 AM 33.1 °F 30.0 °F 7.3 °F 34% 29.99 in 10.0 mi SSE 3.5 mph - N/A   Clear
5:55 AM 32.9 °F - 7.5 °F 35% 29.99 in 10.0 mi Calm Calm - N/A   Clear
6:15 AM 32.9 °F 29.8 °F 8.2 °F 36% 30.00 in 10.0 mi SE 3.5 mph - N/A   Clear
6:35 AM 33.1 °F - 9.0 °F 37% 30.01 in 10.0 mi Calm Calm - N/A   Clear
6:55 AM 32.9 °F - 9.1 °F 37% 30.02 in 10.0 mi Calm Calm - N/A   Clear
7:15 AM 34.0 °F 31.0 °F 10.2 °F 37% 30.03 in 10.0 mi SE 3.5 mph - N/A   Clear
7:35 AM 35.1 °F 32.2 °F 10.0 °F 35% 30.03 in 10.0 mi ESE 3.5 mph - N/A   Clear
7:55 AM 36.5 °F 33.9 °F 8.8 °F 32% 30.03 in 10.0 mi SSW 3.5 mph - N/A   Clear
8:15 AM 37.8 °F 34.2 °F 8.2 °F 29% 30.04 in 10.0 mi South 4.6 mph - N/A   Clear
8:35 AM 39.0 °F 36.8 °F 7.9 °F 28% 30.04 in 10.0 mi ESE 3.5 mph - N/A   Clear
8:55 AM 39.2 °F 33.6 °F 9.7 °F 30% 30.05 in 10.0 mi East 8.1 mph - N/A   Clear
9:15 AM 39.4 °F 33.2 °F 11.8 °F 32% 30.05 in 10.0 mi East 9.2 mph - N/A   Clear
9:35 AM 41.0 °F 35.2 °F 12.9 °F 32% 30.05 in 10.0 mi ENE 9.2 mph - N/A   Clear
9:55 AM 42.1 °F 37.1 °F 12.4 °F 30% 30.06 in 10.0 mi ENE 8.1 mph - N/A   Clear
10:15 AM 43.0 °F 37.7 °F 12.6 °F 29% 30.06 in 10.0 mi East 9.2 mph - N/A   Clear
10:35 AM 43.9 °F 39.9 °F 12.4 °F 28% 30.06 in 10.0 mi ENE 6.9 mph - N/A   Clear
10:55 AM 45.3 °F 42.3 °F 11.8 °F 26% 30.07 in 10.0 mi East 5.8 mph - N/A   Clear
11:15 AM 45.3 °F 41.6 °F 12.0 °F 26% 30.07 in 10.0 mi East 6.9 mph - N/A   Clear
11:35 AM 47.1 °F - 11.5 °F 24% 30.06 in 10.0 mi ENE 6.9 mph - N/A   Clear
11:55 AM 46.9 °F - 9.3 °F 22% 30.06 in 10.0 mi ESE 4.6 mph - N/A   Clear
12:15 PM 47.8 °F - 8.8 °F 21% 30.05 in 10.0 mi SE 4.6 mph - N/A   Clear
12:35 PM 50.0 °F - 3.6 °F 15% 30.04 in 10.0 mi SE 5.8 mph - N/A   Clear
12:55 PM 51.8 °F - 3.6 °F 14% 30.04 in 10.0 mi ENE 8.1 mph 13.8 mph N/A   Clear
1:15 PM 53.6 °F - -0.8 °F 11% 30.03 in 10.0 mi WSW 17.3 mph 25.3 mph N/A   Clear
1:35 PM 52.5 °F - -2.0 °F 11% 30.03 in 10.0 mi West 13.8 mph 32.2 mph N/A   Clear
1:55 PM 52.7 °F - 0.1 °F 12% 30.02 in 10.0 mi West 12.7 mph 27.6 mph N/A   Clear
2:15 PM 54.1 °F - 1.9 °F 12% 30.02 in 10.0 mi WNW 12.7 mph 29.9 mph N/A   Clear
2:35 PM 54.3 °F - 0.5 °F 11% 30.02 in 10.0 mi WSW 24.2 mph 33.4 mph N/A   Clear
2:55 PM 53.8 °F - 0.7 °F 11% 30.01 in 10.0 mi West 23.0 mph 31.1 mph N/A   Clear
3:15 PM 54.0 °F - 1.0 °F 12% 30.01 in 10.0 mi WSW 20.7 mph 29.9 mph N/A   Clear
3:35 PM 54.5 °F - 2.5 °F 12% 30.01 in 10.0 mi WSW 25.3 mph 34.5 mph N/A   Clear
3:55 PM 53.6 °F - 3.0 °F 13% 30.00 in 10.0 mi WNW 16.1 mph 24.2 mph N/A   Clear
4:15 PM 55.6 °F - 4.8 °F 13% 30.01 in 10.0 mi West 16.1 mph 28.8 mph N/A   Clear
4:35 PM 54.0 °F - 4.8 °F 14% 30.01 in 10.0 mi WSW 16.1 mph 26.5 mph N/A   Clear
4:55 PM 54.3 °F - 4.8 °F 14% 30.01 in 10.0 mi SW 10.4 mph 21.9 mph N/A   Clear
5:15 PM 54.0 °F - 4.8 °F 14% 30.01 in 10.0 mi SW 9.2 mph 20.7 mph N/A   Clear
5:35 PM 53.6 °F - 5.0 °F 14% 30.01 in 10.0 mi SW 12.7 mph 20.7 mph N/A   Clear
5:55 PM 53.8 °F - 5.4 °F 14% 30.01 in 10.0 mi WSW 17.3 mph - N/A   Clear
6:15 PM 53.4 °F - 5.0 °F 14% 30.00 in 10.0 mi WSW 12.7 mph 20.7 mph N/A   Clear
6:35 PM 52.7 °F - 5.0 °F 15% 30.00 in 10.0 mi SW 10.4 mph 18.4 mph N/A   Clear
6:55 PM 51.3 °F - 5.0 °F 15% 30.01 in 10.0 mi WSW 9.2 mph - N/A   Clear
7:15 PM 49.8 °F - 5.9 °F 17% 30.01 in 10.0 mi West 9.2 mph - N/A   Clear
7:35 PM 48.6 °F - 5.9 °F 18% 30.00 in 10.0 mi West 6.9 mph - N/A   Clear
7:55 PM 48.2 °F - 6.1 °F 18% 30.01 in 10.0 mi West 4.6 mph - N/A   Clear
8:15 PM 48.0 °F - 6.8 °F 19% 30.01 in 10.0 mi WSW 6.9 mph - N/A   Clear
8:35 PM 46.6 °F - 7.5 °F 20% 30.02 in 10.0 mi West 9.2 mph - N/A   Clear
8:55 PM 47.1 °F - 7.2 °F 20% 30.02 in 10.0 mi SW 5.8 mph - N/A   Clear
9:15 PM 45.9 °F 41.7 °F 8.1 °F 21% 30.03 in 10.0 mi SW 8.1 mph - N/A   Clear
9:35 PM 45.7 °F 41.5 °F 7.7 °F 21% 30.03 in 10.0 mi SW 8.1 mph - N/A   Clear
9:55 PM 45.7 °F 42.0 °F 7.5 °F 21% 30.03 in 10.0 mi SW 6.9 mph - N/A   Clear
10:15 PM 44.6 °F 40.2 °F 7.9 °F 22% 30.03 in 10.0 mi SW 8.1 mph - N/A   Clear
10:35 PM 46.0 °F 42.5 °F 6.6 °F 20% 30.02 in 10.0 mi SSW 6.9 mph - N/A   Clear
10:55 PM 45.3 °F 41.1 °F 6.8 °F 21% 30.02 in 10.0 mi SSW 8.1 mph - N/A   Clear
11:15 PM 45.5 °F 41.3 °F 6.8 °F 21% 30.02 in 10.0 mi SW 8.1 mph - N/A   Clear
11:35 PM 45.5 °F 41.8 °F 7.2 °F 21% 30.02 in 10.0 mi SW 6.9 mph - N/A   Clear
11:55 PM 46.2 °F 42.7 °F 6.8 °F 20% 30.02 in 10.0 mi SSW 6.9 mph - N/A   Clear